FREGAT DEB, 46010

Orbit data source: Space-Track

FREGAT DEB, 46010 is space debris in LEO originally from a launch on Mon, 18 Jul 2011 UTC launched from the Tyuratam Missile And Space Complex (TTMTR). Debris objects in space refer to the collection of defunct objects orbiting the Earth. Examples of debris include non-operational satellites, rocket bodies, and fragments generated from explosions, collisions, or faulty payload assembly.

Loading next visibility...
Identifier
46010, 2011-037HM
Orbit
LEO
Country
Flag of CISCIS
Related business
Manufacturer
Lavochkin
Mission
Spacecraft
Bus & Motor
Unknown
Mass
Unknown
Launch date (UTC)
2011-07-18 (14 years ago)
Launch vehicle
Unknown
Launch site
Tyuratam Missile And Space Complex (TTMTR)
Object type
Payload
Rocket body
Debris
Shape & HBR
Unknown shape, 0.1 m
Radar Cross Section
Small (<0.1 m²)

Expand to show TLE details & history
Last TLE update: 2 days ago

TLE from 2 days ago
0 FREGAT DEB
1 46010U 11037HM  25339.56507722  .00024725  00000-0  31178+0 0  9998
2 46010  51.3264  90.2844 1881223 169.0135 195.8462  9.77021924188330
Epoch: 2025-12-05T13:33Z
TLE epoch observation values (Epoch: 2025-12-05T13:33:42.671Z)
Latitude
-0.00003°
Longitude
172.25123°
Altitude
4,556.849 km
Speed
5.459 km/s
True Right ascension
06h 01m 08s
True Declination
0° 00' 00"
Sunlit
Object was in full shadow at epoch
Visualization orbit readout
Latitude
Unknown
Longitude
Unknown
Altitude
Unknown
Speed
Unknown
Apparent Right ascension
Unknown
Apparent Declination
Unknown
Sunlit
N/A
Visualization observer readout
Local Sidereal Time
06:25:33
Azimuth
Unknown
Elevation
Unknown
Doppler factor
Unknown
Orbital elements
Apogee altitude
4,603.843 km
Perigee altitude
1,126.162 km
Semi-major axis
9,243.139 km
Eccentricity
0.18812
Inclination
51.3264°
RAAN
90.2844°
Arg. of periapsis
169.0135°
True anomaly
191.05662°
Mean anomaly
195.8462°
Eccentric anomaly
193.35628°
Mean motion
2.44238 °/min
Orbital period
147.4 mins
BSTAR
0.31178
Loading maneuver chart data...
Computing Atmospheric mass density...
Loading historical data...
Loading historical data...
Loading historical data...
Loading historical data...
Loading historical data...
Loading historical data...
Loading historical data...

Documentation

Showing up to 5 results
|